EHI
2 1 1 2 3 3 2 3 5 4 5 7 10 13 13 9 6 5 5 6 9 15 21 21 19 16 12 11 11 9 6 4 2 1 0 0 0 0 0 0 0 0 0
6 4 3 4 5 5 4 4 5 4 4 5 7 9 10 8 7 5 5 4 6 10 14 16 16 15 14 12 11 9 6 4 2 0 0 0 0 0 0 0 0 0 0
11 9 7 7 7 6 5 5 5 4 4 4 5 7 8 8 8 6 4 3 3 5 7 8 10 12 12 10 9 7 4 2 1 0 0 0 0 0 0 0 0 0 0
12 10 8 8 7 6 6 6 6 6 6 5 6 7 8 8 7 6 6 4 3 4 5 5 6 8 8 6 6 4 3 1 0 0 0 0 0 0 0 0 0 0 0
10 8 7 6 6 6 6 6 6 6 6 6 5 6 6 6 5 6 7 6 5 5 6 6 6 7 6 4 4 3 2 1 0 0 0 0 0 0 0 0 0 0 0
5 5 4 4 3 4 4 3 3 3 3 3 3 3 4 4 3 4 6 6 5 5 5 6 6 6 5 3 3 3 3 2 1 0 0 0 0 0 0 0 0 0 0
4 3 2 1 1 2 2 1 1 1 1 1 1 1 1 1 1 2 3 4 3 3 3 3 2 3 2 2 3 4 4 3 1 0 0 0 0 0 0 0 0 0 0
3 2 1 0 0 1 1 0 0 0 0 0 0 0 0 0 0 1 1 2 2 2 1 1 0 0 1 1 2 3 4 3 1 0 0 0 0 1 0 0 0 0 0
2 1 0 0 0 0 0 0 0 0 0 0 0 0 0 0 0 0 0 0 0 0 0 0 0 0 0 0 0 1 2 2 1 0 0 0 0 0 0 0 0 0 0
1 1 0 0 0 0 0 0 0 0 0 0 0 0 0 0 0 0 0 0 0 0 0 0 0 0 0 0 0 0 0 1 1 0 0 0 0 0 0 0 0 0 0
1 1 1 0 0 0 0 0 0 0 0 0 0 0 0 0 0 0 0 0 0 0 0 0 0 0 0 0 0 0 0 0 0 0 0 0 0 0 0 0 0 0 0
1 1 1 0 0 0 0 0 0 0 0 0 0 0 0 0 0 0 0 0 0 0 0 0 0 0 0 0 0 0 0 0 0 0 0 0 0 0 0 0 0 0 0
0 0 0 0 0 0 0 0 0 0 0 0 0 0 0 0 0 0 0 0 0 0 0 0 0 0 0 0 0 0 0 0 0 0 0 0 0 0 0 0 0 0 0
0 0 0 0 0 0 0 0 0 0 0 0 0 0 0 0 0 0 0 0 0 0 0 0 0 0 0 0 0 0 0 0 0 0 0 0 0 0 0 0 0 0 0
0 0 0 0 0 0 0 0 0 0 0 0 0 0 0 0 0 0 0 0 0 0 0 0 0 0 0 0 0 0 0 0 0 0 0 0 0 0 0 0 0 0 0
0 0 0 0 0 0 0 0 0 0 0 0 0 0 0 0 0 0 0 0 0 0 0 0 0 0 0 0 0 0 0 0 0 0 0 0 0 0 0 0 0 0 0
0 0 0 0 0 0 0 0 0 0 0 0 0 0 0 0 0 0 0 0 0 0 0 0 0 0 0 0 0 0 0 0 0 0 0 0 0 0 0 0 0 0 0
0 0 0 0 0 0 0 0 0 0 0 0 0 0 0 0 0 0 0 0 0 0 0 0 0 0 0 0 0 0 0 0 0 0 0 0 0 0 0 0 0 0 0
0 0 0 0 0 0 0 0 0 0 0 0 0 0 0 0 0 0 0 0 0 0 0 0 0 0 0 0 0 0 0 0 0 0 0 0 0 0 0 0 0 0 0
0 0 0 0 0 0 0 0 0 0 0 0 0 0 0 0 0 0 0 0 0 0 0 0 0 0 0 0 0 0 0 0 0 0 0 0 0 0 0 0 0 0 0
0 0 0 0 0 0 0 0 0 0 0 0 0 0 0 0 0 0 0 0 0 0 0 0 0 0 0 0 0 0 0 0 0 0 0 0 0 0 0 0 0 0 0
0 0 0 0 0 0 0 0 0 0 0 0 0 0 0 0 0 0 0 0 0 0 0 0 0 0 0 0 0 0 0 0 0 0 0 0 0 0 0 0 0 0 0
0 0 0 0 0 0 0 0 0 0 0 0 0 0 0 0 0 0 0 0 0 0 0 0 0 0 0 0 0 0 0 0 0 0 0 0 0 0 0 0 0 0 0
0 0 0 0 0 0 0 0 0 0 0 0 0 0 0 0 0 0 0 0 0 0 0 0 0 0 0 0 0 0 0 0 0 0 0 0 0 0 0 0 0 0 0
0 0 0 0 0 0 0 0 0 0 0 0 0 0 0 0 0 0 0 0 0 0 0 0 0 0 0 0 0 0 0 0 0 0 0 0 0 0 0 0 0 0 0
0 0 0 0 0 0 0 0 0 0 0 0 0 0 0 0 0 0 0 0 0 0 0 0 0 0 0 0 0 0 0 0 0 0 0 0 0 0 0 0 0 0 0
Wind_Speed
7 6 6 6 6 5 5 5 5 4 4 2 1 1 1 1 1 1 1 1 1 1 2 1 1 2 2 2 3 2 3 2 3 2 1 1 1 2 1 2 3 3 3
8 6 6 6 6 6 5 5 4 5 4 3 2 1 0 1 2 2 2 3 2 2 1 1 0 1 2 2 3 3 2 3 3 3 2 1 0 1 1 1 2 3 3
10 7 7 6 7 7 6 6 6 6 6 6 3 3 3 3 3 3 3 3 3 3 3 2 1 0 1 1 2 3 4 4 3 3 4 4 4 1 0 1 1 2 3
9 8 7 7 6 6 6 6 6 6 6 6 5 5 4 3 2 2 2 3 4 4 3 3 2 1 0 0 1 2 3 4 4 2 2 2 4 4 2 0 1 2 2
10 9 8 7 7 6 6 5 6 6 6 7 6 6 5 3 2 3 4 4 4 4 4 3 2 2 1 2 2 1 2 3 3 3 2 2 2 2 4 3 2 2 2
11 9 8 7 7 6 6 5 6 6 6 7 6 6 6 5 5 5 5 4 3 4 5 4 3 2 2 2 2 1 1 2 3 3 2 3 3 4 4 4 4 3 2
10 9 8 7 6 6 6 5 6 6 6 7 7 6 6 6 5 4 4 4 3 3 4 4 3 2 2 2 2 2 2 2 2 3 2 2 2 3 4 5 4 3 2
9 9 8 7 6 6 5 5 5 5 5 6 5 5 5 4 4 4 3 3 2 3 4 4 4 3 3 3 2 1 1 1 1 1 2 2 2 2 3 5 6 5 2
9 10 8 7 6 5 4 4 5 5 5 5 5 5 5 5 4 4 3 3 3 3 4 4 4 4 3 3 2 2 2 1 1 1 0 1 1 1 2 3 5 6 5
10 9 8 7 6 5 4 4 4 4 4 4 4 4 4 4 4 4 4 4 4 4 5 5 5 4 4 4 3 3 3 3 2 2 1 1 1 1 1 2 2 3 5
10 9 8 7 6 5 4 4 4 4 4 4 4 4 4 4 4 4 4 4 5 5 6 6 5 5 5 5 4 4 4 4 4 3 2 2 2 1 2 2 3 3 4
9 10 8 7 6 5 4 4 3 3 3 3 4 4 4 4 5 5 5 5 5 5 6 6 6 6 6 6 5 5 5 5 4 4 3 3 2 2 2 3 4 4 5
10 8 7 6 5 4 4 3 3 3 3 3 4 4 4 4 4 4 4 5 5 6 6 6 6 6 6 6 6 6 5 5 5 4 4 3 3 3 3 4 5 5 7
10 9 6 5 5 4 4 3 3 2 3 3 4 4 4 4 4 4 5 5 5 6 6 6 6 6 6 6 6 6 6 6 5 5 5 4 4 4 5 5 7 8 8
10 9 7 5 5 5 4 3 3 2 3 3 3 3 3 4 5 5 5 6 6 6 6 7 7 6 6 5 6 6 7 7 7 6 6 6 7 7 6 6 7 8 8
10 9 8 7 6 5 4 3 3 2 3 3 3 3 3 4 5 5 5 6 6 6 7 7 7 7 6 9 10 7 6 6 7 7 6 7 8 10 11 11 10 10 10
9 9 7 6 6 5 4 4 3 2 3 3 3 3 4 4 4 5 5 6 5 6 7 6 7 7 8 11 11 11 7 7 7 7 6 7 7 8 8 12 13 11 11
9 8 6 5 4 4 4 4 3 3 3 3 3 3 4 4 4 5 5 5 4 5 5 6 6 7 9 11 12 12 9 8 8 8 7 7 7 7 8 10 10 8 7
7 6 6 5 5 4 4 4 4 3 3 3 3 3 3 4 4 4 4 3 4 5 5 5 6 7 7 10 11 10 6 7 8 8 8 8 8 10 12 11 10 9 7
6 6 5 6 5 4 5 5 4 3 3 3 3 3 3 4 4 3 3 3 4 4 4 6 6 6 6 9 10 8 5 6 6 6 8 11 10 11 11 9 9 8 5
6 6 6 5 4 4 5 5 4 3 3 3 4 4 3 3 3 3 3 3 4 4 5 6 6 6 7 8 10 9 5 4 5 5 5 5 10 11 11 8 6 6 5
6 5 5 4 4 5 6 5 4 3 4 4 4 4 3 3 3 4 3 3 4 5 4 5 5 5 6 8 8 10 9 6 5 4 3 4 9 10 9 6 6 8 6
6 5 6 5 3 4 5 5 3 4 5 5 5 4 4 4 4 4 3 3 3 3 3 3 4 4 4 6 10 10 10 9 5 3 4 6 8 8 6 7 8 6 4
5 5 6 5 3 3 4 4 5 5 5 5 4 4 5 5 5 4 3 3 2 3 3 3 3 3 4 4 4 4 5 7 5 4 5 7 8 7 5 6 5 4 3
4 5 6 5 4 4 4 4 5 6 5 4 4 4 4 4 4 4 4 3 1 2 4 2 2 3 2 3 3 3 3 3 3 3 3 4 4 4 4 3 3 3 3
5 5 5 5 5 5 4 4 5 5 5 4 3 3 3 3 3 3 4 7 5 6 6 5 4 2 2 1 4 5 5 4 4 4 3 2 2 2 2 2 2 2 2
Wind_Direction
123 108 94 83 73 61 52 41 32 10 10 359 8 28 61 70 67 70 72 75 87 122 124 147 175 180 192 209 194 173 174 171 148 119 101 25 50 114 155 155 150 146 148
121 108 94 82 74 67 60 50 36 21 14 0 335 318 89 73 73 54 43 39 46 50 87 85 130 195 194 200 198 181 178 185 177 153 145 170 334 61 82 120 142 142 132
130 117 98 81 73 65 57 53 35 25 16 8 8 21 40 43 37 32 23 17 37 47 46 38 44 34 175 198 204 190 189 198 202 186 165 169 191 159 77 131 131 139 139
125 117 106 91 80 70 59 51 37 32 23 20 33 46 55 55 31 24 29 17 29 36 33 22 12 15 2 278 250 204 201 191 198 212 207 180 154 154 159 123 74 88 110
127 120 112 102 91 79 67 51 42 36 32 35 38 51 50 44 33 33 38 27 19 20 17 10 358 357 345 320 301 272 229 204 199 196 190 179 150 139 148 162 159 103 64
125 117 108 98 86 75 67 56 51 41 35 43 43 50 55 50 46 35 32 23 15 12 12 11 8 357 340 326 308 291 267 230 212 204 190 178 173 173 157 154 154 138 96
128 121 111 100 90 78 68 60 58 47 38 45 44 45 53 54 50 39 34 26 11 2 359 4 359 353 344 341 339 330 302 255 217 210 203 193 193 164 148 140 137 129 111
127 121 117 110 102 91 77 65 61 52 44 48 46 45 48 51 45 38 35 25 5 348 348 356 354 353 357 0 358 354 331 334 246 221 197 184 193 168 157 150 146 139 124
126 121 116 108 103 95 85 75 68 57 45 44 48 45 44 48 43 34 31 20 2 357 1 1 0 2 6 6 9 20 12 15 11 332 174 155 175 155 155 150 156 154 155
126 120 116 112 104 94 87 75 72 67 53 45 47 51 40 41 40 35 29 19 9 6 9 10 12 15 18 20 30 28 28 36 24 22 49 65 99 122 130 140 141 141 143
131 124 120 117 109 100 92 84 74 67 58 51 49 47 36 33 36 32 23 20 19 19 23 21 23 25 26 26 35 36 38 43 36 33 49 56 76 110 122 131 129 121 120
127 125 123 117 111 108 100 88 77 73 68 60 54 46 35 34 33 26 19 22 22 23 29 29 30 32 31 30 35 39 40 43 42 34 43 45 72 92 106 123 125 124 121
127 121 119 120 120 116 103 91 83 79 70 64 57 44 36 36 32 24 23 28 34 33 32 34 31 29 30 33 36 43 44 42 38 34 43 48 78 90 95 108 117 119 117
131 125 122 125 122 113 109 107 93 82 77 69 62 53 42 40 37 34 35 36 42 44 38 36 32 32 33 34 40 47 48 45 41 39 46 52 77 100 109 109 115 116 115
136 135 134 130 123 115 111 107 98 82 80 76 66 57 49 47 46 44 41 42 43 45 41 42 35 31 36 35 45 50 52 47 46 45 49 60 76 87 105 115 120 121 119
144 140 136 133 133 133 129 114 100 92 87 81 72 66 58 56 52 50 49 48 42 39 43 41 39 37 37 44 53 56 52 46 47 47 48 59 62 73 86 101 112 123 128
144 142 141 140 142 139 136 129 120 109 97 87 82 79 70 61 55 60 55 51 45 45 44 37 42 40 34 51 58 57 58 52 48 47 50 61 61 69 82 84 85 88 104
143 142 140 139 138 132 130 127 118 108 102 92 86 85 78 70 62 62 56 51 48 49 45 38 40 44 38 53 63 60 59 56 49 47 53 65 59 72 87 88 82 80 84
140 141 142 136 133 133 132 120 106 98 92 92 97 96 92 81 72 67 58 53 58 53 48 40 41 45 31 48 63 65 61 59 49 46 48 59 66 76 88 89 87 81 74
128 132 129 123 127 133 126 119 115 105 98 98 100 105 96 90 82 74 66 59 66 64 60 49 38 42 35 46 64 67 71 64 55 47 45 54 68 71 80 88 92 89 82
130 127 126 129 139 137 127 124 120 122 123 106 95 92 85 87 84 71 62 68 66 64 59 52 37 35 34 43 59 65 70 74 67 57 43 43 67 73 75 82 88 100 105
127 125 126 128 133 134 128 126 133 138 118 102 94 87 73 70 79 78 66 66 76 71 58 53 40 26 24 37 51 63 67 76 77 62 41 47 63 69 70 74 85 92 90
132 126 126 120 116 128 131 132 144 133 115 103 97 86 69 60 63 77 80 71 74 80 65 61 54 28 18 24 40 54 62 64 64 47 48 52 56 56 53 61 76 81 84
133 131 127 124 121 124 129 138 136 125 117 112 104 94 81 65 52 51 63 78 81 96 92 83 72 44 27 20 17 25 38 42 41 29 27 39 48 51 46 45 49 56 83
134 134 136 139 142 132 128 132 129 121 116 112 107 100 91 89 72 59 47 65 55 137 133 128 120 101 59 353 22 50 34 24 20 29 35 32 30 31 28 30 34 41 53
133 131 133 134 137 134 133 133 131 128 124 116 114 111 106 99 95 91 58 37 51 70 97 122 127 96 120 67 43 40 30 26 36 56 41 31 41 51 51 51 38 38 48